This is the latest recevied weather packets stored in our database for station/object OE-11373. If no packets are shown the sender has not sent any weather packets the latest 10 day(s).
| Time | Temp. | Humidity | Pressure | Rain* | Wind** | Luminosity | Snow |
|---|---|---|---|---|---|---|---|
| 1788113113 | 18.89° C | 65% | 852.4 hPa | - | - | - | - |
| 1788112513 | 18.89° C | 63% | 852.3 hPa | - | - | - | - |
| 1788111925 | 19.44° C | 62% | 852.4 hPa | - | - | - | - |
| 1788111313 | 19.44° C | 61% | 852.3 hPa | - | - | - | - |
| 1788110713 | 20° C | 56% | 852.3 hPa | - | - | - | - |
| 1788109886 | 20° C | 55% | 852.3 hPa | - | - | - | - |
| 1788109513 | 20° C | 53% | 852.4 hPa | - | - | - | - |
| 1788108912 | 20.56° C | 53% | 852.5 hPa | - | - | - | - |
| 1788108086 | 20.56° C | 50% | 852.5 hPa | - | - | - | - |
| 1788107713 | 21.11° C | 49% | 852.6 hPa | - | - | - | - |
| 1788107113 | 21.11° C | 48% | 852.7 hPa | - | - | - | - |
| 1788106286 | 21.11° C | 50% | 852.7 hPa | - | - | - | - |
| 1788105913 | 21.11° C | 50% | 852.7 hPa | - | - | - | - |
| 1788105313 | 21.67° C | 53% | 852.9 hPa | - | - | - | - |
| 1788104486 | 22.22° C | 53% | 852.9 hPa | - | - | - | - |
| 1788104113 | 22.22° C | 56% | 852.9 hPa | - | - | - | - |
| 1788103513 | 22.22° C | 53% | 852.9 hPa | - | - | - | - |
| 1788102686 | 22.22° C | 52% | 852.9 hPa | - | - | - | - |
| 1788102313 | 22.22° C | 52% | 852.9 hPa | - | - | - | - |
| 1788101713 | 22.22° C | 49% | 853 hPa | - | - | - | - |
| 1788100886 | 22.22° C | 51% | 852.9 hPa | - | - | - | - |
| 1788100512 | 22.78° C | 53% | 853.1 hPa | - | - | - | - |
| 1788099913 | 22.22° C | 52% | 853.1 hPa | - | - | - | - |
| 1788099085 | 22.22° C | 51% | 853.2 hPa | - | - | - | - |
| 1788098713 | 21.67° C | 49% | 853.1 hPa | - | - | - | - |
* Rain since midnight (hover to see other rain measurements)
** Current wind speed in m/s (hover to see current wind gust speed)